Zurück zum Katalog

YAOGAN 4 DEB

AktivMilitärPO
NORAD 35575·DEBRIS·🇨🇳 China

Gestartet Dec 1, 2008 von Jiuquan Satellite Launch Center

Loading…

Nächste Überflüge (nächste 24 Stunden)

TLE

AktuellSource: Space-Track

Epoche: Sep 13, 2026, 08:01 UTC

1 35575U 08061B   26256.33433370  .00001126  00000-0  32686-3 0  9995
2 35575  97.7667  31.9030 0206851 274.6149  83.1440 14.34471792920137

Verfolge YAOGAN 4 DEB in Echtzeit mit AllMySat

Download on the App Store